Change the Weather History Date:

Saturday, May 4, 2013

  Actual Average Record
Temperature  
Mean Temperature 46 °F 56 °F  
Max Temperature 58 °F 67 °F 84 °F (2000)
Min Temperature 34 °F 44 °F 26 °F (2005)
Degree Days  
Heating Degree Days 19 10  
Month to date heating degree days 96 41  
Since 1 July heating degree days 6848 6826  
Cooling Degree Days 0 0  
Month to date cooling degree days 0 0  
Year to date cooling degree days 4 4  
Moisture  
Dew Point 43 °F    
Average Humidity 96    
Maximum Humidity 100    
Minimum Humidity 92    
Precipitation  
Precipitation 2.25 in 0.13 in 2.25 in (2013)
Month to date precipitation 3.42 0.54  
Sea Level Pressure  
Sea Level Pressure 29.99 in    
Wind  
Wind Speed 13 mph (North)    
Max Wind Speed 22 mph    
Max Gust Speed 26 mph    
Visibility 5 miles    
Events Rain    
T = Trace of Precipitation, MM = Missing Value Source: NWS Daily Summary

Daily Weather History Graph

Daily Weather History Graph

Search for Another Location

Airport or City:

Trip Planner

Search our weather history database for the weather conditions in past years. The results will help you decide how hot, cold, wet, or windy it might be!

Date:

Astronomy

May. 04, 2013 Rise Set
Actual Time 6:03 AM CDT 8:14 PM CDT
Civil Twilight 5:32 AM CDT 8:45 PM CDT
Nautical Twilight 4:54 AM CDT 9:23 PM CDT
Astronomical Twilight 4:12 AM CDT 10:05 PM CDT
Moon 3:07 AM CDT (5/4) 3:07 PM CDT (5/4)
Length of Visible Light 15h 12m
Length of Day
14h 11m
Waning Crescent, 27% of the Moon is Illuminated
May 4
Waning Crescent
May 9
New
May 17
First Quarter
May 24
Full
May 31
Last Quarter

Hourly Weather History & Observations

Time (CDT) Temp. Windchill Dew Point Humidity Pressure Visibility Wind Dir Wind Speed Gust Speed Precip Events Conditions
12:12 AM 33.8 °F 22.8 °F 32.0 °F 93% 29.95 in 10.0 mi North 18.4 mph - 0.00 in   Overcast
12:41 AM 33.8 °F 24.3 °F 33.8 °F 100% 29.95 in 10.0 mi North 13.8 mph - 0.01 in Rain Light Rain
12:53 AM 34.0 °F 24.2 °F 33.1 °F 96% 29.97 in 9.0 mi North 15.0 mph 20.7 mph 0.02 in Rain Light Rain
1:53 AM 34.0 °F 23.0 °F 33.1 °F 96% 29.94 in 8.0 mi North 18.4 mph 25.3 mph 0.01 in Rain Light Rain
2:53 AM 35.1 °F 24.8 °F 34.0 °F 96% 29.93 in 10.0 mi NNE 17.3 mph - 0.16 in Rain Light Rain
3:14 AM 35.6 °F 24.8 °F 33.8 °F 93% 29.89 in 10.0 mi NNE 19.6 mph 24.2 mph 0.00 in Rain Light Rain
3:53 AM 35.1 °F 24.5 °F 34.0 °F 96% 29.91 in 10.0 mi NNE 18.4 mph 24.2 mph 0.00 in   Overcast
4:53 AM 35.1 °F 26.4 °F 35.1 °F 100% 29.92 in 10.0 mi NNE 12.7 mph - 0.01 in Rain Light Rain
5:25 AM 35.6 °F 28.0 °F 35.6 °F 100% 29.90 in 10.0 mi NNE 10.4 mph - 0.00 in Rain Light Rain
5:53 AM 35.1 °F 25.9 °F 35.1 °F 100% 29.93 in 7.0 mi NNE 13.8 mph - 0.00 in Rain Light Rain
6:53 AM 36.0 °F 27.1 °F 36.0 °F 100% 29.94 in 4.0 mi NNE 13.8 mph - 0.01 in Rain Light Rain
7:53 AM 37.0 °F 28.1 °F 37.0 °F 100% 29.94 in 1.8 mi NNE 15.0 mph - 0.00 in   Overcast
8:46 AM 37.4 °F 28.5 °F 37.4 °F 100% 29.93 in 2.0 mi NNE 15.0 mph - 0.00 in Rain Light Rain
8:53 AM 37.9 °F 29.6 °F 37.9 °F 100% 29.96 in 2.5 mi NE 13.8 mph - 0.00 in Rain Light Rain
9:40 AM 41.0 °F 33.9 °F 39.2 °F 93% 29.95 in 3.0 mi NNE 12.7 mph - 0.00 in   Overcast
9:53 AM 41.0 °F 33.9 °F 41.0 °F 100% 29.99 in 3.0 mi NE 12.7 mph - 0.00 in   Overcast
10:07 AM 41.0 °F 35.2 °F 41.0 °F 100% 29.97 in 2.5 mi NE 9.2 mph - N/A   Overcast
10:22 AM 42.8 °F 38.0 °F 41.0 °F 93% 29.98 in 3.0 mi NE 8.1 mph - N/A   Overcast
10:53 AM 44.1 °F 37.7 °F 43.0 °F 96% 30.00 in 3.0 mi NNE 12.7 mph - N/A   Overcast
11:53 AM 52.0 °F - 51.1 °F 97% 30.00 in 4.0 mi NNE 12.7 mph - N/A   Overcast
12:28 PM 48.2 °F - 48.2 °F 100% 29.98 in 4.0 mi NNE 13.8 mph - N/A   Overcast
12:35 PM 48.2 °F - 48.2 °F 100% 29.99 in 4.0 mi NNE 11.5 mph - 0.01 in   Overcast
12:53 PM 50.0 °F - 48.9 °F 96% 30.00 in 4.0 mi NNE 11.5 mph - 0.01 in   Overcast
1:04 PM 51.8 °F - 50.0 °F 94% 29.98 in 4.0 mi North 12.7 mph - N/A   Overcast
1:24 PM 53.6 °F - 53.6 °F 100% 29.97 in 5.0 mi North 13.8 mph - N/A   Overcast
1:45 PM 57.2 °F - 55.4 °F 94% 29.98 in 5.0 mi NNE 15.0 mph - N/A   Mostly Cloudy
1:53 PM 57.0 °F - 55.0 °F 93% 29.99 in 5.0 mi NNE 13.8 mph - N/A   Mostly Cloudy
2:53 PM 57.0 °F - 55.0 °F 93% 29.99 in 5.0 mi North 13.8 mph - N/A   Overcast
3:07 PM 57.2 °F - 55.4 °F 94% 29.97 in 5.0 mi North 12.7 mph - 0.00 in Rain Light Rain
3:53 PM 53.1 °F - 52.0 °F 96% 29.99 in 2.5 mi North 16.1 mph - 0.01 in Rain Light Rain
3:57 PM 53.6 °F - 51.8 °F 94% 29.97 in 3.0 mi North 16.1 mph - 0.00 in Rain Light Rain
4:43 PM 50.0 °F - 50.0 °F 100% 29.99 in 3.0 mi West 6.9 mph 16.1 mph 0.03 in Rain Light Rain
4:47 PM 50.0 °F - 50.0 °F 100% 29.99 in 1.8 mi WNW 8.1 mph - 0.07 in Rain Rain
4:53 PM 50.0 °F - 48.9 °F 96% 30.00 in 1.0 mi NNW 12.7 mph - 0.18 in Rain Heavy Rain
5:53 PM 48.9 °F - 48.9 °F 100% 30.01 in 1.5 mi North 12.7 mph - 0.40 in Rain Rain
6:11 PM 50.0 °F - 50.0 °F 100% 29.98 in 3.0 mi North 19.6 mph - 0.05 in Rain Light Rain
6:53 PM 48.0 °F - 46.9 °F 96% 30.03 in 5.0 mi North 12.7 mph - 0.06 in Rain Light Rain
7:53 PM 45.0 °F 37.6 °F 44.1 °F 97% 30.04 in 4.0 mi NNW 17.3 mph - 0.09 in Rain Heavy Rain
8:07 PM 44.6 °F 40.7 °F 44.6 °F 100% 30.04 in 3.0 mi NNE 6.9 mph - 0.06 in Rain Rain
8:15 PM 44.6 °F 41.4 °F 44.6 °F 100% 30.04 in 2.5 mi Variable 5.8 mph - 0.10 in Rain Rain
8:24 PM 44.6 °F 38.1 °F 42.8 °F 93% 30.04 in 2.5 mi North 13.8 mph - 0.18 in Rain Heavy Rain
8:35 PM 44.6 °F 37.8 °F 42.8 °F 93% 30.04 in 1.5 mi NNW 15.0 mph - 0.38 in Rain Heavy Rain
8:53 PM 44.1 °F 37.7 °F 43.0 °F 96% 30.06 in 1.8 mi NNW 12.7 mph - 0.77 in Rain Heavy Rain
9:03 PM 44.6 °F 36.9 °F 42.8 °F 93% 30.04 in 2.5 mi North 18.4 mph - 0.05 in Rain Rain
9:23 PM 42.8 °F 35.4 °F 42.8 °F 100% 30.04 in 4.0 mi NNW 15.0 mph - 0.29 in Rain Light Rain
9:34 PM 42.8 °F 37.5 °F 41.0 °F 93% 30.05 in 3.0 mi NNW 9.2 mph - 0.36 in Rain Heavy Rain
9:40 PM 42.8 °F 37.5 °F 42.8 °F 100% 30.05 in 2.5 mi NW 9.2 mph - 0.40 in Rain Heavy Rain
9:53 PM 42.1 °F 34.9 °F 41.0 °F 96% 30.07 in 3.0 mi NNW 13.8 mph - 0.48 in Rain Rain
10:53 PM 42.1 °F 37.7 °F 41.0 °F 96% 30.08 in 8.0 mi NNW 6.9 mph - 0.03 in Rain Light Rain
11:53 PM 43.0 °F 37.2 °F 41.0 °F 93% 30.07 in 9.0 mi NNW 10.4 mph - 0.03 in Rain Light Rain